TimeEST,TemperatureF,Dew PointF,Humidity,Sea Level PressureIn,VisibilityMPH,Wind Direction,Wind SpeedMPH,Gust SpeedMPH,PrecipitationIn,Events,Conditions,WindDirDegrees,DateUTC
12:15 AM,50.0,50.0,100,30.25,5.0,Calm,Calm,-,N/A,,Clear,0,2012-12-05 05:15:00
12:35 AM,50.0,50.0,100,30.24,4.0,Calm,Calm,-,N/A,,Clear,0,2012-12-05 05:35:00
12:55 AM,50.0,50.0,100,30.23,5.0,Calm,Calm,-,N/A,,Clear,0,2012-12-05 05:55:00
1:15 AM,50.0,50.0,100,30.23,5.0,Calm,Calm,-,N/A,,Clear,0,2012-12-05 06:15:00
1:35 AM,50.0,50.0,100,30.22,5.0,Calm,Calm,-,N/A,,Clear,0,2012-12-05 06:35:00
1:55 AM,50.0,50.0,100,30.22,7.0,Calm,Calm,-,N/A,,Clear,0,2012-12-05 06:55:00
2:15 AM,50.0,50.0,100,30.22,5.0,Calm,Calm,-,N/A,,Clear,0,2012-12-05 07:15:00
2:55 AM,48.2,48.2,100,30.21,5.0,Calm,Calm,-,N/A,,Clear,0,2012-12-05 07:55:00
3:15 AM,50.0,50.0,100,30.21,5.0,Calm,Calm,-,N/A,,Clear,0,2012-12-05 08:15:00
3:35 AM,50.0,50.0,100,30.20,2.0,Calm,Calm,-,N/A,,Clear,0,2012-12-05 08:35:00
3:55 AM,50.0,50.0,100,30.20,0.5,Calm,Calm,-,N/A,Fog,Fog,0,2012-12-05 08:55:00
4:15 AM,48.2,48.2,100,30.19,1.2,Calm,Calm,-,N/A,,Scattered Clouds,0,2012-12-05 09:15:00
4:35 AM,48.2,48.2,100,30.18,0.8,Calm,Calm,-,N/A,,Overcast,0,2012-12-05 09:35:00
4:55 AM,46.4,46.4,100,30.18,0.5,Calm,Calm,-,N/A,Fog,Fog,0,2012-12-05 09:55:00
5:15 AM,46.4,46.4,100,30.19,0.5,Calm,Calm,-,N/A,Fog,Fog,0,2012-12-05 10:15:00
5:35 AM,46.4,46.4,100,30.19,0.2,Calm,Calm,-,N/A,Fog,Fog,0,2012-12-05 10:35:00
5:55 AM,46.4,46.4,100,30.19,0.5,Calm,Calm,-,N/A,Fog,Fog,0,2012-12-05 10:55:00
6:15 AM,46.4,46.4,100,30.20,0.5,Calm,Calm,-,N/A,Fog,Fog,0,2012-12-05 11:15:00
6:35 AM,44.6,44.6,100,30.20,0.5,Calm,Calm,-,N/A,Fog,Fog,0,2012-12-05 11:35:00
6:55 AM,44.6,44.6,100,30.21,7.0,Calm,Calm,-,N/A,,Clear,0,2012-12-05 11:55:00
7:15 AM,44.6,44.6,100,30.22,1.8,Calm,Calm,-,N/A,,Mist,0,2012-12-05 12:15:00
7:35 AM,46.4,46.4,100,30.22,5.0,Calm,Calm,-,N/A,,Clear,0,2012-12-05 12:35:00
7:55 AM,46.4,46.4,100,30.22,5.0,Calm,Calm,-,N/A,,Clear,0,2012-12-05 12:55:00
9:35 AM,62.6,59.0,88,30.22,7.0,WSW,3.5,-,N/A,,Clear,240,2012-12-05 14:35:00
9:55 AM,64.4,59.0,83,30.23,7.0,SW,3.5,-,N/A,,Clear,220,2012-12-05 14:55:00
10:15 AM,64.4,57.2,77,30.22,7.0,West,4.6,-,N/A,,Clear,260,2012-12-05 15:15:00
10:35 AM,-9999,-9999,N/A,-9999,-9999.0,North,-9999.0,-,N/A,,Unknown,0,2012-12-05 15:35:00
10:55 AM,-9999,-9999,N/A,-9999,-9999.0,North,-9999.0,-,N/A,,Unknown,0,2012-12-05 15:55:00
11:35 AM,71.6,55.4,57,30.19,7.0,WSW,3.5,-,N/A,,Clear,240,2012-12-05 16:35:00
11:55 AM,73.4,53.6,50,30.17,7.0,SW,6.9,-,N/A,,Clear,230,2012-12-05 16:55:00
12:15 PM,73.4,51.8,47,30.16,7.0,SW,6.9,-,N/A,,Clear,220,2012-12-05 17:15:00
12:35 PM,73.4,51.8,47,30.15,7.0,SW,5.8,-,N/A,,Clear,220,2012-12-05 17:35:00
12:55 PM,75.2,51.8,44,30.14,7.0,West,9.2,-,N/A,,Scattered Clouds,260,2012-12-05 17:55:00
1:15 PM,75.2,51.8,44,30.13,5.0,SW,8.1,-,N/A,,Haze,220,2012-12-05 18:15:00
1:35 PM,75.2,51.8,44,30.12,7.0,SSW,6.9,-,N/A,,Clear,210,2012-12-05 18:35:00
1:55 PM,75.2,51.8,44,30.12,7.0,WSW,6.9,-,N/A,,Clear,240,2012-12-05 18:55:00
2:15 PM,75.2,51.8,44,30.11,7.0,West,4.6,-,N/A,,Clear,260,2012-12-05 19:15:00
2:35 PM,75.2,51.8,44,30.11,5.0,WNW,3.5,-,N/A,,Haze,290,2012-12-05 19:35:00
2:55 PM,75.2,51.8,44,30.10,7.0,West,4.6,-,N/A,,Clear,260,2012-12-05 19:55:00
3:15 PM,73.4,51.8,47,30.10,7.0,West,4.6,-,N/A,,Clear,280,2012-12-05 20:15:00
3:35 PM,73.4,51.8,47,30.10,5.0,Calm,Calm,-,N/A,,Haze,0,2012-12-05 20:35:00
3:55 PM,71.6,53.6,53,30.10,5.0,Calm,Calm,-,N/A,,Haze,0,2012-12-05 20:55:00
4:15 PM,69.8,53.6,56,30.10,7.0,Calm,Calm,-,N/A,,Clear,0,2012-12-05 21:15:00
4:35 PM,68.0,55.4,64,30.10,5.0,Calm,Calm,-,N/A,,Haze,0,2012-12-05 21:35:00
4:55 PM,64.4,57.2,77,30.11,7.0,Calm,Calm,-,N/A,,Clear,0,2012-12-05 21:55:00
5:15 PM,62.6,57.2,82,30.11,10.0,Calm,Calm,-,N/A,,Scattered Clouds,0,2012-12-05 22:15:00
5:35 PM,60.8,57.2,88,30.11,7.0,Calm,Calm,-,N/A,,Scattered Clouds,0,2012-12-05 22:35:00
5:55 PM,60.8,57.2,88,30.11,7.0,Calm,Calm,-,N/A,,Mostly Cloudy,0,2012-12-05 22:55:00
6:15 PM,59.0,59.0,100,30.11,7.0,Calm,Calm,-,N/A,,Scattered Clouds,0,2012-12-05 23:15:00
6:35 PM,59.0,59.0,100,30.12,7.0,Calm,Calm,-,N/A,,Scattered Clouds,0,2012-12-05 23:35:00
6:55 PM,57.2,57.2,100,30.12,10.0,Calm,Calm,-,N/A,,Mostly Cloudy,0,2012-12-05 23:55:00
7:15 PM,57.2,57.2,100,30.12,7.0,Calm,Calm,-,N/A,,Overcast,0,2012-12-06 00:15:00
7:35 PM,57.2,57.2,100,30.13,7.0,Calm,Calm,-,N/A,,Overcast,0,2012-12-06 00:35:00
7:55 PM,57.2,57.2,100,30.13,7.0,North,5.8,-,N/A,,Overcast,360,2012-12-06 00:55:00
8:15 PM,59.0,57.2,94,30.14,5.0,North,3.5,-,N/A,,Overcast,360,2012-12-06 01:15:00
8:35 PM,62.6,57.2,82,30.14,7.0,North,5.8,-,N/A,,Mostly Cloudy,10,2012-12-06 01:35:00
8:55 PM,62.6,57.2,82,30.15,7.0,NNE,4.6,-,N/A,,Overcast,20,2012-12-06 01:55:00
9:15 PM,62.6,57.2,82,30.15,7.0,North,5.8,-,N/A,,Overcast,10,2012-12-06 02:15:00
9:35 PM,62.6,59.0,88,30.15,7.0,NNE,11.5,16.1,N/A,,Overcast,20,2012-12-06 02:35:00
9:55 PM,62.6,59.0,88,30.16,7.0,North,8.1,-,N/A,,Overcast,10,2012-12-06 02:55:00
10:15 PM,60.8,57.2,88,30.16,7.0,North,9.2,-,N/A,,Overcast,10,2012-12-06 03:15:00
10:35 PM,60.8,57.2,88,30.16,7.0,NNE,9.2,-,N/A,,Mostly Cloudy,30,2012-12-06 03:35:00
10:55 PM,60.8,57.2,88,30.16,7.0,NNE,6.9,-,N/A,,Mostly Cloudy,30,2012-12-06 03:55:00
11:15 PM,60.8,59.0,94,30.17,7.0,NE,5.8,-,N/A,,Overcast,40,2012-12-06 04:15:00
11:35 PM,60.8,59.0,94,30.17,7.0,NNE,5.8,-,N/A,,Overcast,20,2012-12-06 04:35:00
11:55 PM,60.8,59.0,94,30.16,10.0,NNE,8.1,-,N/A,,Overcast,30,2012-12-06 04:55:00